Location: El Bakhil
(32.7726°N, 5.5387°W)
Time: 20:29:38
(UTC+00:00)

Envisat - Pass Details

Date: 10 December 2021
Orbit: 764 x 766 km, 98.2° (Epoch: 18 January)

Event Time Altitude Azimuth Distance (km) Brightness Sun altitude
Rises 18:02:41 0° 218° (SW) 3,218 7.4 -9.7°
Reaches altitude 10° 18:07:14 10° 256° (WSW) 2,299 7.0 -10.6°
Maximum altitude 18:08:16 11° 268° (W) 2,259 6.7 -10.8°
Drops below altitude 10° 18:09:19 10° 281° (W) 2,302 6.5 -11.0°
Sets 18:13:54 0° 319° (NW) 3,235 6.5 -11.9°
